When you browse on this site, cookies collect data to enhance your experience and personalize the content and advertising you see.
Visit our Privacy Policy to learn more. By continuing to use the site, you agree to this use of cookies and data.
  • In United Kingdom
  • List of Countries
  • For 7 days
  • Water Temperature
  • Weather Map
  • Weather Widgets
  • user-avatar
    Login

    Hourly Weather Comarnic

    Today, 23 September, Monday

    Time Temperature Precipitation Wind Pressure Humidity
    00:00 +10°C° 0 mm 1 mps 684 mmHg 51%
    01:00 +10°C° 0 mm 1 mps 684 mmHg 50%
    02:00 +10°C° 0 mm 1 mps 683 mmHg 49%
    03:00 +10°C° 0 mm 1 mps 683 mmHg 50%
    04:00 +10°C° 0 mm 1 mps 683 mmHg 50%
    05:00 +10°C° 0 mm 1 mps 683 mmHg 50%
    06:00 +12°C° 0 mm 1 mps 683 mmHg 48%
    07:00 +12°C° 0 mm 0 mps 683 mmHg 46%
    08:00 +13°C° 0 mm 0 mps 684 mmHg 43%
    09:00 +16°C° 0 mm 1 mps 684 mmHg 39%
    10:00 +19°C° 0 mm 1 mps 684 mmHg 34%
    11:00 +21°C° 0 mm 1 mps 684 mmHg 29%
    12:00 +20°C° 0 mm 2 mps 684 mmHg 28%
    13:00 +21°C° 0 mm 2 mps 684 mmHg 26%
    14:00 +23°C° 0 mm 2 mps 684 mmHg 25%
    15:00 +21°C° 0 mm 2 mps 683 mmHg 28%
    16:00 +19°C° 0 mm 2 mps 683 mmHg 32%
    17:00 +18°C° 0 mm 2 mps 682 mmHg 36%
    18:00 +18°C° 0 mm 1 mps 682 mmHg 38%
    19:00 +16°C° 0 mm 1 mps 682 mmHg 41%
    20:00 +15°C° 0 mm 1 mps 682 mmHg 43%
    21:00 +14°C° 0 mm 1 mps 682 mmHg 44%
    22:00 +14°C° 0 mm 1 mps 682 mmHg 45%
    23:00 +14°C° 0 mm 1 mps 682 mmHg 46%

    Tomorrow, 24 September, Tuesday

    Time Temperature Precipitation Wind Pressure Humidity
    00:00 +14°C° 0 mm 1 mps 682 mmHg 46%
    01:00 +14°C° 0 mm 1 mps 682 mmHg 46%
    02:00 +13°C° 0 mm 0 mps 682 mmHg 46%
    03:00 +14°C° 0 mm 1 mps 682 mmHg 47%
    04:00 +13°C° 0 mm 1 mps 682 mmHg 47%
    05:00 +13°C° 0 mm 1 mps 681 mmHg 48%
    06:00 +13°C° 0 mm 1 mps 682 mmHg 50%
    07:00 +13°C° 0 mm 1 mps 682 mmHg 53%
    08:00 +13°C° 0 mm 1 mps 682 mmHg 56%
    09:00 +13°C° 0 mm 2 mps 682 mmHg 58%
    10:00 +13°C° 0 mm 2 mps 682 mmHg 61%
    11:00 +13°C° 0 mm 2 mps 682 mmHg 63%
    12:00 +13°C° 0 mm 2 mps 682 mmHg 67%
    13:00 +13°C° 0 mm 2 mps 682 mmHg 70%
    14:00 +13°C° 0 mm 2 mps 682 mmHg 74%
    15:00 +13°C° 0 mm 2 mps 682 mmHg 74%
    16:00 +13°C° 0 mm 2 mps 681 mmHg 74%
    17:00 +13°C° 0 mm 1 mps 681 mmHg 74%
    18:00 +12°C° 0 mm 1 mps 681 mmHg 76%
    19:00 +12°C° 0 mm 1 mps 681 mmHg 77%
    20:00 +12°C° 0 mm 1 mps 682 mmHg 79%
    21:00 +12°C° 0 mm 1 mps 682 mmHg 79%
    22:00 +11°C° 0 mm 1 mps 682 mmHg 79%
    23:00 +11°C° 0 mm 1 mps 682 mmHg 79%

    Day after tomorrow, 25 September, Wednesday

    Time Temperature Precipitation Wind Pressure Humidity
    00:00 +11°C° 0 mm 1 mps 682 mmHg 80%
    01:00 +11°C° 0 mm 1 mps 682 mmHg 80%
    02:00 +11°C° 0 mm 1 mps 681 mmHg 81%
    03:00 +11°C° 0 mm 1 mps 681 mmHg 82%
    04:00 +11°C° 0 mm 1 mps 681 mmHg 82%
    05:00 +11°C° 0 mm 1 mps 681 mmHg 83%
    06:00 +11°C° 0 mm 1 mps 681 mmHg 82%
    07:00 +11°C° 0 mm 1 mps 681 mmHg 82%
    08:00 +12°C° 0 mm 1 mps 681 mmHg 81%
    09:00 +13°C° 0 mm 1 mps 682 mmHg 77%
    10:00 +14°C° 0 mm 1 mps 682 mmHg 72%
    11:00 +15°C° 0 mm 2 mps 682 mmHg 68%
    12:00 +15°C° 0 mm 2 mps 682 mmHg 66%
    13:00 +15°C° 0 mm 2 mps 682 mmHg 65%
    14:00 +16°C° 0 mm 2 mps 682 mmHg 64%
    15:00 +16°C° 0 mm 2 mps 682 mmHg 65%
    16:00 +15°C° 0 mm 1 mps 681 mmHg 67%
    17:00 +15°C° 0 mm 1 mps 681 mmHg 68%
    18:00 +14°C° 0 mm 1 mps 681 mmHg 73%
    19:00 +13°C° 0 mm 1 mps 681 mmHg 77%
    20:00 +12°C° 0 mm 1 mps 681 mmHg 81%
    21:00 +12°C° 0 mm 1 mps 681 mmHg 82%
    22:00 +12°C° 0 mm 1 mps 681 mmHg 82%
    23:00 +12°C° 0 mm 1 mps 681 mmHg 82%

    26 September, Thursday

    Time Temperature Precipitation Wind Pressure Humidity
    00:00 +12°C° 0.3 mm 1 mps 681 mmHg 85%
    01:00 +12°C° 0.3 mm 1 mps 681 mmHg 87%
    02:00 +12°C° 0.3 mm 1 mps 680 mmHg 90%
    03:00 +12°C° 0.3 mm 1 mps 680 mmHg 91%
    04:00 +12°C° 0.3 mm 1 mps 680 mmHg 92%
    05:00 +12°C° 0.3 mm 1 mps 680 mmHg 93%
    06:00 +12°C° 0.5 mm 1 mps 681 mmHg 92%
    07:00 +11°C° 0.5 mm 0 mps 681 mmHg 90%
    08:00 +12°C° 0.5 mm 0 mps 681 mmHg 89%
    09:00 +13°C° 0.2 mm 0 mps 681 mmHg 85%
    10:00 +15°C° 0.2 mm 1 mps 682 mmHg 80%
    11:00 +16°C° 0.2 mm 1 mps 682 mmHg 76%
    12:00 +16°C° 0.5 mm 1 mps 682 mmHg 75%
    13:00 +18°C° 0.5 mm 1 mps 681 mmHg 74%
    14:00 +18°C° 0.5 mm 1 mps 681 mmHg 73%
    15:00 +16°C° 1.6 mm 2 mps 681 mmHg 79%
    16:00 +14°C° 1.6 mm 2 mps 681 mmHg 85%
    17:00 +13°C° 1.6 mm 2 mps 681 mmHg 91%
    18:00 +13°C° 1.9 mm 2 mps 681 mmHg 91%
    19:00 +12°C° 1.9 mm 2 mps 681 mmHg 92%
    20:00 +12°C° 1.9 mm 2 mps 681 mmHg 92%
    21:00 +10°C° 0.1 mm 2 mps 681 mmHg 92%
    22:00 +10°C° 0.1 mm 2 mps 682 mmHg 92%
    23:00 +10°C° 0.1 mm 2 mps 682 mmHg 91%

    27 September, Friday

    Time Temperature Precipitation Wind Pressure Humidity
    00:00 +10°C° 0 mm 2 mps 682 mmHg 91%
    01:00 +9°C° 0 mm 2 mps 682 mmHg 91%
    02:00 +9°C° 0 mm 2 mps 682 mmHg 90%
    03:00 +9°C° 0 mm 2 mps 682 mmHg 90%
    04:00 +9°C° 0 mm 2 mps 683 mmHg 90%
    05:00 +9°C° 0 mm 2 mps 683 mmHg 89%
    06:00 +9°C° 0 mm 2 mps 683 mmHg 87%
    07:00 +10°C° 0 mm 2 mps 683 mmHg 84%
    08:00 +12°C° 0 mm 2 mps 684 mmHg 82%
    09:00 +14°C° 0 mm 2 mps 685 mmHg 74%
    10:00 +15°C° 0 mm 2 mps 685 mmHg 66%
    11:00 +17°C° 0 mm 2 mps 686 mmHg 59%
    12:00 +18°C° 0 mm 1 mps 686 mmHg 57%
    13:00 +18°C° 0 mm 1 mps 686 mmHg 55%
    14:00 +19°C° 0 mm 1 mps 686 mmHg 54%
    15:00 +18°C° 0 mm 1 mps 685 mmHg 57%
    16:00 +18°C° 0 mm 1 mps 685 mmHg 60%
    17:00 +15°C° 0 mm 0 mps 685 mmHg 63%
    18:00 +15°C° 0 mm 1 mps 685 mmHg 68%
    19:00 +13°C° 0 mm 1 mps 685 mmHg 73%
    20:00 +11°C° 0 mm 1 mps 685 mmHg 78%
    21:00 +11°C° 0 mm 1 mps 685 mmHg 78%
    22:00 +11°C° 0 mm 1 mps 686 mmHg 78%
    23:00 +11°C° 0 mm 1 mps 686 mmHg 78%

    28 September, Saturday

    Time Temperature Precipitation Wind Pressure Humidity
    00:00 +11°C° 0 mm 1 mps 686 mmHg 79%
    01:00 +11°C° 0 mm 1 mps 686 mmHg 80%
    02:00 +10°C° 0 mm 1 mps 685 mmHg 81%
    03:00 +10°C° 0 mm 1 mps 685 mmHg 82%
    04:00 +10°C° 0 mm 1 mps 685 mmHg 83%
    05:00 +10°C° 0 mm 1 mps 685 mmHg 84%
    06:00 +11°C° 0 mm 1 mps 686 mmHg 79%
    07:00 +12°C° 0 mm 1 mps 686 mmHg 75%
    08:00 +14°C° 0 mm 1 mps 686 mmHg 70%
    09:00 +15°C° 0 mm 1 mps 686 mmHg 64%
    10:00 +17°C° 0 mm 2 mps 687 mmHg 58%
    11:00 +18°C° 0 mm 3 mps 687 mmHg 52%
    12:00 +19°C° 0 mm 3 mps 686 mmHg 51%
    13:00 +19°C° 0 mm 3 mps 686 mmHg 49%
    14:00 +19°C° 0 mm 2 mps 686 mmHg 47%
    15:00 +19°C° 0 mm 2 mps 685 mmHg 49%
    16:00 +19°C° 0 mm 2 mps 685 mmHg 51%
    17:00 +19°C° 0 mm 1 mps 684 mmHg 53%
    18:00 +16°C° 0 mm 1 mps 684 mmHg 57%
    19:00 +15°C° 0 mm 1 mps 684 mmHg 60%
    20:00 +13°C° 0 mm 2 mps 684 mmHg 64%
    21:00 +13°C° 0 mm 2 mps 684 mmHg 65%
    22:00 +13°C° 0 mm 2 mps 684 mmHg 66%
    23:00 +12°C° 0 mm 2 mps 684 mmHg 67%
    Show more